Regional Weather Roundup
Issued by NWS

Home | Current Version | Previous Version | Graphics & Text | Print | Product List | Glossary On
Versions: 1 2 3 4 5 6 7 8 9 10 11 12 13 14 15 16 17 18 19 20 21 22 23 24 25 26 27 28 29 30 31 32 33 34 35 36 37 38 39 40 41 42 43 44 45 46 47 48 49 50
000
ASUS43 KLSX 261707
RWRMO

WEATHER SUMMARY FOR MISSOURI
NATIONAL WEATHER SERVICE SPRINGFIELD MO
1100 AM CST MON JAN 26 2015

NOTE: "FAIR" INDICATES FEW OR NO CLOUDS BELOW 12,000 FEET WITH NO
       SIGNIFICANT WEATHER AND/OR OBSTRUCTIONS TO VISIBILITY.
       CURRENT SKY AND/OR WEATHER CONDITIONS ARE NOT AVAILABLE FOR
       CHILLICOTHE AND FARMINGTON.

MOZ001>031-035>038-043-044-053-054-261800-
...NORTHERN AND WESTERN MISSOURI...

CITY           SKY/WX    TMP DP  RH WIND       PRES   REMARKS
KANSAS CTY INT MOSUNNY   44  33  65 W18       29.94R
KANSAS C DTWN  SUNNY     46  31  55 W12       29.95F
LEE`S SUMMIT   SUNNY     44  31  60 SW18G28   29.95S
ST JOSEPH      SUNNY     44  34  67 W8        29.95R
CHILLICOTHE      N/A     41  32  70 SW9G17    29.92F
KIRKSVILLE     CLOUDY    35  31  85 SW13      29.87F WCI  26

$$
MOZ066>068-077>081-088>096-101>105-261800-
...SOUTHWEST MISSOURI...

CITY           SKY/WX    TMP DP  RH WIND       PRES   REMARKS
SPRINGFIELD    SUNNY     43  31  62 SW10      30.04F
JOPLIN         SUNNY     45  32  60 SW13      30.06F

$$
MOZ032>034-039>042-045>050-055>058-069>072-261800-
...CENTRAL MISSOURI...

CITY           SKY/WX    TMP DP  RH WIND       PRES   REMARKS
COLUMBIA       PTSUNNY   39  32  76 SW14      29.96F
JEFFERSON CITY MOSUNNY   39  30  70 SW10      29.99F
ROLLA          PTSUNNY   37  30  75 SW12      29.99F WCI  29
SEDALIA        SUNNY     42  33  70 SW18G24   29.97F
WHITEMAN AFB   SUNNY     42  32  68 SW18      29.94F
WARRENSBURG    SUNNY     43  32  65 S15       29.94F
OSAGE BEACH    SUNNY     41  30  65 W8        30.02F

$$
MOZ051-052-059>065-261800-
...EAST CENTRAL MISSOURI...

CITY           SKY/WX    TMP DP  RH WIND       PRES   REMARKS
ST LOUIS INTL  CLOUDY    33  25  72 SW9       30.00F WCI  25
SPIRIT OF STL  CLOUDY    33  25  72 S5        30.01F WCI  29
ST CHARLES     CLOUDY    31  26  82 S6        30.00F WCI  25

$$
MOZ072>076-082>087-097>100-106>115-261800-
...SOUTH CENTRAL AND SOUTHEAST MISSOURI...

CITY           SKY/WX    TMP DP  RH WIND       PRES   REMARKS
CAPE GIRARDEAU CLOUDY    35  27  72 NW10      30.09F WCI  27
FARMINGTON     CLOUDY    32  25  74 MISG      30.07F
POPLAR BLUFF   CLOUDY    37  27  67 W9        30.10R
WEST PLAINS    MOSUNNY   39  28  64 W8        30.06F

$$


USA.gov is the U.S. government's official web portal to all federal, state and local government web resources and services.